SCP
0 -0 -0 -0 -0 -0 -0 -0 -0 -0 -0 -0 -0 0 0 0 0 0 0 0 0 0 0 0 0 0 0 0 0 0 0 0 0 0 0 0 0 0 -0 -0 -0 0 0
-0 -0 -0 -0 -0 -0 -0 -0 -0 -0 -0 -0 0 0 0 0 0 0 0 0 0 0 0 0 0 0 0 0 0 0 0 0 0 0 0 0 0 0 -0 -0 0 0 0
-0 -0 -0 -0 -0 -0 -0 -0 -0 -0 -0 0 0 0 0 0 0 0 0 0 0 0 0 0 0 0 0 0 0 0 0 0 0 0 0 0 0 0 0 0 0 0 0
-0 -0 -0 -0 -0 -0 -0 -0 -0 -0 -0 0 0 -0 -0 0 0 0 0 0 0 0 0 0 0 0 0 0 0 0 0 0 0 0 0 0 0 0 -0 0 0 0 0
-0 -0 -0 -0 -0 -0 -0 -0 -0 -0 -0 -0 -0 -0 -0 -0 -0 0 0 0 0 0 0 0 0 0 0 0 0 0 0 0 0 0 0 0 0 0 -0 -0 0 0 0
-0 -0 -0 -0 -0 -0 -0 -0 -0 -0 -0 -0 -0 -0 -0 -0 -0 0 0 0 0 0 0 0 0 0 0 0 0 0 0 0 0 0 0 0 0 0 0 -0 0 0 0
-0 -0 -0 -0 -0 -0 -0 -0 -0 -0 -0 -0 -0 -0 -0 0 0 0 0 0 0 0 0 0 0 0 0 0 0 0 0 0 0 0 0 0 0 0 1 1 1 0 0
-0 -0 -0 -0 -0 -0 -0 -0 -0 -0 -0 -0 -0 -0 0 0 0 0 0 0 0 -0 -0 0 0 0 0 0 0 0 0 0 0 0 0 0 0 1 1 0 1 1 0
-0 -0 0 -0 -0 -0 -0 -0 -0 -0 -0 -0 0 0 0 0 0 0 0 -0 -0 -0 0 0 0 0 0 0 0 0 0 0 0 0 0 0 1 1 0 0 0 1 1
-0 0 -0 0 0 0 0 0 0 0 0 0 0 0 0 0 0 0 0 0 0 0 0 0 0 0 0 0 0 0 0 0 0 0 0 0 0 0 0 0 0 0 1
-0 -0 -0 0 0 0 0 0 0 0 0 0 0 0 0 0 0 0 0 0 0 0 0 0 0 0 0 0 0 0 0 0 0 0 0 0 0 0 0 0 0 0 0
0 0 -0 -0 0 0 0 0 0 0 0 0 0 0 0 0 0 0 0 0 0 0 0 0 0 0 0 0 0 0 0 0 0 0 0 0 0 0 0 0 0 0 1
-0 -0 -0 -0 0 0 0 0 0 0 0 0 0 0 0 0 0 0 0 0 0 0 0 0 0 0 0 0 0 0 0 0 0 0 0 0 0 0 0 0 0 0 1
0 -0 -0 0 0 0 0 0 0 0 0 0 0 0 0 0 0 0 0 0 0 0 0 0 0 0 0 0 0 0 0 0 0 0 0 0 0 0 0 0 0 0 0
-0 0 -0 0 0 0 0 0 0 0 0 0 0 0 0 0 0 0 0 0 0 0 0 0 0 0 0 0 0 0 0 0 0 0 0 0 0 0 0 0 0 0 0
-0 -0 0 0 0 0 0 0 0 0 0 0 0 0 0 0 0 0 0 0 0 0 0 0 0 0 0 0 0 0 0 0 0 0 0 0 0 0 0 0 0 0 0
0 0 0 0 0 0 0 0 0 0 0 0 0 0 0 0 0 0 0 0 0 0 0 0 0 0 0 0 0 0 0 0 0 0 0 0 0 0 0 0 0 0 0
0 0 0 0 0 0 0 0 0 0 0 0 0 0 0 0 0 0 0 0 0 0 0 0 0 0 0 0 0 0 0 0 0 0 0 0 0 0 0 0 0 0 0
0 0 0 0 0 0 0 0 0 0 0 0 0 0 0 0 0 0 0 0 0 0 0 0 0 0 0 0 0 0 0 0 0 0 0 0 0 0 0 0 0 0 0
0 0 0 0 0 0 0 0 0 0 0 0 0 0 0 0 0 0 0 0 0 0 0 0 0 0 0 0 0 0 0 0 0 0 0 0 0 0 0 0 0 0 0
0 0 0 0 0 0 0 0 0 0 0 0 0 0 0 0 0 0 0 0 0 0 0 0 0 0 0 0 0 0 0 0 0 0 0 0 0 0 0 0 -0 -0 -0
0 0 0 0 0 0 0 0 0 0 0 0 0 0 0 0 0 0 0 0 0 0 0 0 0 0 0 0 0 0 0 0 0 0 0 0 0 0 0 0 -0 -0 -0
0 0 0 0 0 0 0 0 0 0 0 0 0 0 0 0 0 0 0 0 0 0 0 0 0 0 0 0 0 0 0 0 0 0 0 0 0 0 0 0 0 -0 -0
0 0 0 0 0 0 0 0 0 0 0 0 0 0 0 0 0 0 0 0 0 0 0 0 0 0 0 0 0 0 0 0 0 0 0 0 0 0 0 0 0 0 0
0 0 0 0 0 0 0 0 0 0 0 0 0 0 0 0 0 0 0 0 0 0 0 0 0 0 0 0 0 0 0 0 0 0 0 0 0 0 0 0 0 0 0
0 0 0 0 0 0 0 0 0 0 0 0 0 0 0 0 0 0 0 0 0 0 0 0 0 0 0 0 0 0 0 0 0 0 0 0 0 0 0 0 0 0 0
Wind_Speed_500mb
31 30 31 31 26 21 17 15 14 15 16 17 17 17 18 19 19 18 15 13 12 11 11 10 9 8 7 6 5 4 4 4 4 5 6 6 6 5 5 5 5 10 11
35 34 32 30 25 20 15 13 14 17 17 17 18 20 21 19 16 14 12 12 10 8 8 9 7 5 4 4 3 3 4 7 9 10 11 13 12 8 4 1 2 7 9
30 36 33 29 24 17 13 12 15 16 17 19 21 20 16 14 12 10 10 9 9 7 7 6 4 4 4 3 3 1 2 4 8 13 15 16 17 17 15 12 8 6 7
39 38 34 28 22 17 13 14 15 17 20 21 18 14 12 10 10 9 9 8 9 8 9 8 8 7 7 7 8 8 7 6 8 10 13 18 19 18 14 17 18 11 8
39 36 32 27 21 15 14 16 17 20 21 16 13 11 9 8 9 9 9 9 10 10 11 12 14 14 15 14 13 14 13 12 13 15 14 18 23 23 17 17 19 15 12
39 37 32 26 20 16 16 18 22 21 17 13 10 7 7 9 10 10 9 8 8 10 13 16 17 16 14 13 15 17 15 14 17 20 19 16 22 25 20 17 17 14 15
37 34 31 26 21 19 20 23 22 18 13 10 8 8 10 9 5 7 12 15 18 20 22 20 20 18 17 17 16 15 14 14 17 19 21 17 16 21 16 10 12 14 16
34 34 31 27 26 25 25 26 22 16 11 10 9 8 6 3 7 12 17 19 20 19 21 19 18 19 19 18 15 15 16 16 18 19 18 16 12 21 22 18 17 21 23
34 32 29 27 28 29 29 25 20 14 10 8 6 4 2 4 9 15 20 22 20 21 22 23 22 19 22 24 19 14 15 18 19 19 14 10 15 18 22 20 20 22 27
36 33 30 31 29 31 31 25 17 12 8 4 2 1 4 8 13 17 19 20 23 23 22 22 21 20 21 22 22 20 19 17 14 13 11 3 6 13 15 15 15 17 18
41 37 36 34 35 34 29 23 17 12 5 3 1 4 7 11 15 17 18 20 23 24 21 18 18 19 23 26 26 23 20 18 15 6 8 6 6 5 6 8 12 14 15
47 43 38 37 37 34 29 24 19 12 4 1 3 6 9 14 17 18 19 21 21 17 13 14 17 23 27 29 30 25 23 21 17 11 7 3 6 7 9 10 12 13 15
45 46 45 41 39 35 31 26 20 13 4 1 5 8 11 16 17 17 18 20 16 13 12 13 16 23 30 36 37 36 36 30 23 17 14 11 9 11 18 16 21 25 27
50 48 48 47 45 40 34 27 21 14 8 2 6 8 11 16 16 16 18 20 13 11 9 10 14 22 27 34 36 36 37 37 34 26 25 15 13 15 16 11 11 15 19
55 52 52 49 46 41 35 29 24 17 9 6 10 11 12 16 17 16 18 16 9 7 6 7 8 14 21 30 36 41 38 34 31 31 31 30 28 28 29 27 22 16 11
57 52 54 52 45 41 36 31 24 19 12 10 12 13 16 15 17 18 17 11 6 3 3 4 3 8 17 22 31 39 39 39 39 36 31 28 27 27 30 29 27 28 26
59 55 58 53 48 44 38 34 29 22 18 12 13 14 16 17 18 18 16 13 9 5 1 4 2 4 8 16 22 28 34 36 39 39 34 28 30 30 31 31 30 35 38
65 65 61 58 56 49 44 38 32 26 21 16 14 17 16 18 19 19 17 14 12 9 4 10 8 4 6 10 15 19 24 29 33 35 36 38 36 37 29 30 29 31 37
74 68 67 65 61 56 47 37 34 31 24 20 15 16 15 16 18 18 17 13 10 7 6 9 12 11 12 10 11 13 13 19 24 28 32 34 34 35 36 34 30 23 21
80 75 72 73 67 58 53 46 42 37 30 23 18 17 13 13 15 16 16 13 10 3 9 10 8 8 6 18 14 14 11 9 16 18 23 24 26 30 34 33 35 35 36
75 78 77 77 68 61 56 54 52 43 32 26 17 16 11 12 15 12 13 10 11 5 6 12 9 3 1 13 22 22 13 8 11 13 14 14 16 22 25 26 29 32 34
64 65 70 73 68 58 54 58 54 40 31 23 22 18 11 12 12 12 6 9 7 5 3 8 8 3 3 9 24 26 16 13 10 8 5 4 5 9 12 15 17 20 27
48 57 62 64 56 52 56 54 30 32 31 30 26 16 13 11 10 6 6 7 6 2 7 10 4 5 7 7 21 16 11 9 14 5 6 4 5 7 6 8 10 10 16
46 53 59 50 26 54 68 49 39 43 37 35 23 18 16 9 7 2 2 5 6 3 2 6 5 4 9 12 11 8 7 8 8 9 8 2 8 12 7 9 9 8 11
29 24 32 38 25 27 51 49 60 57 41 37 29 24 20 11 6 5 3 2 4 5 4 5 9 8 8 8 7 7 6 7 9 8 7 7 12 9 4 6 12 9 12
24 35 43 44 35 42 52 50 44 45 44 42 36 31 21 14 9 12 6 5 3 3 6 3 8 10 10 8 10 11 11 13 14 13 10 9 9 11 11 9 15 18 17
Wind_Direction_500mb
172 169 155 151 153 146 145 143 134 123 119 116 112 107 103 101 97 91 86 80 74 70 69 66 61 47 37 36 28 359 325 288 259 229 212 192 177 155 123 91 61 42 37
165 165 157 153 151 148 150 143 135 132 127 118 111 107 102 98 93 89 80 73 71 62 53 53 53 55 54 42 40 24 311 294 280 259 240 229 217 218 228 260 341 12 14
174 165 161 157 155 151 147 144 135 128 120 115 112 108 105 96 85 69 55 41 36 29 20 15 3 352 342 333 319 312 257 255 260 258 254 247 234 234 244 254 269 301 319
176 169 163 158 153 154 156 146 135 126 121 120 118 109 91 73 58 47 41 32 25 16 6 351 343 333 312 302 293 281 269 258 260 260 255 243 236 230 242 256 252 261 277
171 168 165 162 159 162 157 145 135 131 130 124 107 84 68 56 54 57 51 33 16 1 345 337 330 325 324 316 300 286 282 279 271 263 258 244 232 228 247 261 259 252 266
175 171 167 164 164 166 158 147 144 139 128 109 94 83 83 89 78 58 48 32 1 343 332 331 327 321 316 307 293 289 290 277 270 268 267 253 237 232 248 271 251 250 292
175 172 169 166 168 169 161 151 145 133 123 108 92 98 103 93 70 23 8 4 354 346 345 346 337 326 319 315 316 318 315 297 288 285 279 268 239 235 239 235 238 253 291
182 176 173 172 172 169 161 151 146 140 130 118 114 115 117 85 358 355 355 352 355 356 350 349 342 340 333 330 328 324 321 316 307 304 301 290 232 218 219 207 225 243 261
182 180 177 178 174 167 160 156 153 148 139 122 122 140 125 15 355 351 348 347 354 353 348 352 357 10 12 12 12 353 332 327 323 322 322 298 224 218 213 216 230 240 257
183 184 182 180 176 168 163 163 161 152 140 126 157 42 9 1 347 342 344 345 352 349 359 7 23 23 11 8 8 7 2 347 325 342 334 346 232 228 233 240 259 267 268
187 185 184 182 176 173 170 167 168 163 168 137 89 351 335 337 337 341 344 352 352 358 2 14 19 21 8 4 7 8 1 5 8 11 29 34 336 316 295 286 278 277 275
190 184 185 182 178 177 177 182 177 172 156 121 323 319 317 329 335 337 344 350 351 359 19 26 24 18 19 26 31 26 20 17 19 29 42 351 325 344 329 319 302 290 284
184 186 182 181 181 184 188 191 186 169 151 19 339 310 321 324 323 327 338 342 355 17 27 25 16 35 41 42 47 47 48 47 44 36 39 26 360 318 299 290 282 286 289
188 186 182 183 185 187 192 197 195 186 204 254 326 312 317 312 312 319 335 342 355 16 34 34 36 45 44 47 50 54 57 57 55 53 53 41 34 30 29 4 331 309 289
193 188 186 188 189 190 192 193 197 210 229 292 318 307 308 309 309 315 330 339 0 32 61 54 51 47 51 54 62 64 66 65 63 61 59 65 64 61 56 52 46 31 15
197 193 192 192 192 195 200 199 202 218 239 278 297 316 306 305 306 316 331 336 350 27 70 125 95 48 48 67 72 74 66 60 58 57 54 51 54 54 53 52 58 53 50
204 199 197 194 198 203 206 208 207 217 239 279 296 309 309 312 312 316 330 325 325 314 194 174 174 41 71 84 79 75 70 62 55 55 54 56 57 58 58 55 50 52 48
216 210 203 202 205 210 212 210 213 216 234 266 277 298 305 309 312 317 326 325 324 289 229 201 207 216 177 115 95 86 74 69 73 64 60 70 67 59 57 51 58 58 56
222 220 213 213 213 212 210 212 217 221 236 251 261 283 297 305 303 319 329 327 325 297 225 204 217 219 216 180 132 110 89 75 74 73 71 75 70 65 60 59 70 63 49
229 227 225 221 217 215 216 213 211 218 234 231 252 272 281 289 308 320 324 332 335 329 202 215 218 193 177 194 173 157 142 115 98 93 82 77 66 60 56 58 56 52 49
238 234 231 226 220 218 216 210 206 216 222 224 248 259 274 290 299 317 328 320 332 332 209 215 210 208 19 184 179 170 158 132 130 109 93 80 63 57 59 62 56 46 47
237 233 228 224 224 220 213 207 211 210 211 221 239 243 258 278 308 317 310 316 331 304 223 204 210 266 356 181 186 176 166 138 150 139 116 94 43 46 53 62 55 38 31
227 234 233 227 232 219 223 229 222 227 228 227 236 234 241 278 306 307 321 329 343 333 242 223 229 51 60 128 188 196 186 175 138 133 215 180 304 313 338 19 8 9 9
219 227 227 229 332 291 232 239 241 259 235 248 245 241 238 272 285 285 295 342 7 16 264 219 151 82 67 94 126 162 187 172 161 117 116 87 324 282 275 316 328 308 333
193 231 279 235 352 254 232 246 266 242 241 250 235 236 238 266 229 174 135 52 11 35 64 138 115 106 97 86 86 97 85 93 92 153 138 48 37 71 73 321 321 281 307
114 357 279 246 267 263 243 255 250 250 227 234 231 234 234 252 220 173 156 114 93 51 80 131 128 117 103 73 68 82 87 88 79 82 77 49 22 349 318 329 342 319 288
Wind_Speed_850mb
31 30 31 31 26 21 17 15 14 15 16 17 17 17 18 19 19 18 15 13 12 11 11 10 9 8 7 6 5 4 4 4 4 5 6 6 6 5 5 5 5 10 11
35 34 32 30 25 20 15 13 14 17 17 17 18 20 21 19 16 14 12 12 10 8 8 9 7 5 4 4 3 3 4 7 9 10 11 13 12 8 4 1 2 7 9
30 36 33 29 24 17 13 12 15 16 17 19 21 20 16 14 12 10 10 9 9 7 7 6 4 4 4 3 3 1 2 4 8 13 15 16 17 17 15 12 8 6 7
39 38 34 28 22 17 13 14 15 17 20 21 18 14 12 10 10 9 9 8 9 8 9 8 8 7 7 7 8 8 7 6 8 10 13 18 19 18 14 17 18 11 8
39 36 32 27 21 15 14 16 17 20 21 16 13 11 9 8 9 9 9 9 10 10 11 12 14 14 15 14 13 14 13 12 13 15 14 18 23 23 17 17 19 15 12
39 37 32 26 20 16 16 18 22 21 17 13 10 7 7 9 10 10 9 8 8 10 13 16 17 16 14 13 15 17 15 14 17 20 19 16 22 25 20 17 17 14 15
37 34 31 26 21 19 20 23 22 18 13 10 8 8 10 9 5 7 12 15 18 20 22 20 20 18 17 17 16 15 14 14 17 19 21 17 16 21 16 10 12 14 16
34 34 31 27 26 25 25 26 22 16 11 10 9 8 6 3 7 12 17 19 20 19 21 19 18 19 19 18 15 15 16 16 18 19 18 16 12 21 22 18 17 21 23
34 32 29 27 28 29 29 25 20 14 10 8 6 4 2 4 9 15 20 22 20 21 22 23 22 19 22 24 19 14 15 18 19 19 14 10 15 18 22 20 20 22 27
36 33 30 31 29 31 31 25 17 12 8 4 2 1 4 8 13 17 19 20 23 23 22 22 21 20 21 22 22 20 19 17 14 13 11 3 6 13 15 15 15 17 18
41 37 36 34 35 34 29 23 17 12 5 3 1 4 7 11 15 17 18 20 23 24 21 18 18 19 23 26 26 23 20 18 15 6 8 6 6 5 6 8 12 14 15
47 43 38 37 37 34 29 24 19 12 4 1 3 6 9 14 17 18 19 21 21 17 13 14 17 23 27 29 30 25 23 21 17 11 7 3 6 7 9 10 12 13 15
45 46 45 41 39 35 31 26 20 13 4 1 5 8 11 16 17 17 18 20 16 13 12 13 16 23 30 36 37 36 36 30 23 17 14 11 9 11 18 16 21 25 27
50 48 48 47 45 40 34 27 21 14 8 2 6 8 11 16 16 16 18 20 13 11 9 10 14 22 27 34 36 36 37 37 34 26 25 15 13 15 16 11 11 15 19
55 52 52 49 46 41 35 29 24 17 9 6 10 11 12 16 17 16 18 16 9 7 6 7 8 14 21 30 36 41 38 34 31 31 31 30 28 28 29 27 22 16 11
57 52 54 52 45 41 36 31 24 19 12 10 12 13 16 15 17 18 17 11 6 3 3 4 3 8 17 22 31 39 39 39 39 36 31 28 27 27 30 29 27 28 26
59 55 58 53 48 44 38 34 29 22 18 12 13 14 16 17 18 18 16 13 9 5 1 4 2 4 8 16 22 28 34 36 39 39 34 28 30 30 31 31 30 35 38
65 65 61 58 56 49 44 38 32 26 21 16 14 17 16 18 19 19 17 14 12 9 4 10 8 4 6 10 15 19 24 29 33 35 36 38 36 37 29 30 29 31 37
74 68 67 65 61 56 47 37 34 31 24 20 15 16 15 16 18 18 17 13 10 7 6 9 12 11 12 10 11 13 13 19 24 28 32 34 34 35 36 34 30 23 21
80 75 72 73 67 58 53 46 42 37 30 23 18 17 13 13 15 16 16 13 10 3 9 10 8 8 6 18 14 14 11 9 16 18 23 24 26 30 34 33 35 35 36
75 78 77 77 68 61 56 54 52 43 32 26 17 16 11 12 15 12 13 10 11 5 6 12 9 3 1 13 22 22 13 8 11 13 14 14 16 22 25 26 29 32 34
64 65 70 73 68 58 54 58 54 40 31 23 22 18 11 12 12 12 6 9 7 5 3 8 8 3 3 9 24 26 16 13 10 8 5 4 5 9 12 15 17 20 27
48 57 62 64 56 52 56 54 30 32 31 30 26 16 13 11 10 6 6 7 6 2 7 10 4 5 7 7 21 16 11 9 14 5 6 4 5 7 6 8 10 10 16
46 53 59 50 26 54 68 49 39 43 37 35 23 18 16 9 7 2 2 5 6 3 2 6 5 4 9 12 11 8 7 8 8 9 8 2 8 12 7 9 9 8 11
29 24 32 38 25 27 51 49 60 57 41 37 29 24 20 11 6 5 3 2 4 5 4 5 9 8 8 8 7 7 6 7 9 8 7 7 12 9 4 6 12 9 12
24 35 43 44 35 42 52 50 44 45 44 42 36 31 21 14 9 12 6 5 3 3 6 3 8 10 10 8 10 11 11 13 14 13 10 9 9 11 11 9 15 18 17
Wind_Direction_850mb
172 169 155 151 153 146 145 143 134 123 119 116 112 107 103 101 97 91 86 80 74 70 69 66 61 47 37 36 28 359 325 288 259 229 212 192 177 155 123 91 61 42 37
165 165 157 153 151 148 150 143 135 132 127 118 111 107 102 98 93 89 80 73 71 62 53 53 53 55 54 42 40 24 311 294 280 259 240 229 217 218 228 260 341 12 14
174 165 161 157 155 151 147 144 135 128 120 115 112 108 105 96 85 69 55 41 36 29 20 15 3 352 342 333 319 312 257 255 260 258 254 247 234 234 244 254 269 301 319
176 169 163 158 153 154 156 146 135 126 121 120 118 109 91 73 58 47 41 32 25 16 6 351 343 333 312 302 293 281 269 258 260 260 255 243 236 230 242 256 252 261 277
171 168 165 162 159 162 157 145 135 131 130 124 107 84 68 56 54 57 51 33 16 1 345 337 330 325 324 316 300 286 282 279 271 263 258 244 232 228 247 261 259 252 266
175 171 167 164 164 166 158 147 144 139 128 109 94 83 83 89 78 58 48 32 1 343 332 331 327 321 316 307 293 289 290 277 270 268 267 253 237 232 248 271 251 250 292
175 172 169 166 168 169 161 151 145 133 123 108 92 98 103 93 70 23 8 4 354 346 345 346 337 326 319 315 316 318 315 297 288 285 279 268 239 235 239 235 238 253 291
182 176 173 172 172 169 161 151 146 140 130 118 114 115 117 85 358 355 355 352 355 356 350 349 342 340 333 330 328 324 321 316 307 304 301 290 232 218 219 207 225 243 261
182 180 177 178 174 167 160 156 153 148 139 122 122 140 125 15 355 351 348 347 354 353 348 352 357 10 12 12 12 353 332 327 323 322 322 298 224 218 213 216 230 240 257
183 184 182 180 176 168 163 163 161 152 140 126 157 42 9 1 347 342 344 345 352 349 359 7 23 23 11 8 8 7 2 347 325 342 334 346 232 228 233 240 259 267 268
187 185 184 182 176 173 170 167 168 163 168 137 89 351 335 337 337 341 344 352 352 358 2 14 19 21 8 4 7 8 1 5 8 11 29 34 336 316 295 286 278 277 275
190 184 185 182 178 177 177 182 177 172 156 121 323 319 317 329 335 337 344 350 351 359 19 26 24 18 19 26 31 26 20 17 19 29 42 351 325 344 329 319 302 290 284
184 186 182 181 181 184 188 191 186 169 151 19 339 310 321 324 323 327 338 342 355 17 27 25 16 35 41 42 47 47 48 47 44 36 39 26 360 318 299 290 282 286 289
188 186 182 183 185 187 192 197 195 186 204 254 326 312 317 312 312 319 335 342 355 16 34 34 36 45 44 47 50 54 57 57 55 53 53 41 34 30 29 4 331 309 289
193 188 186 188 189 190 192 193 197 210 229 292 318 307 308 309 309 315 330 339 0 32 61 54 51 47 51 54 62 64 66 65 63 61 59 65 64 61 56 52 46 31 15
197 193 192 192 192 195 200 199 202 218 239 278 297 316 306 305 306 316 331 336 350 27 70 125 95 48 48 67 72 74 66 60 58 57 54 51 54 54 53 52 58 53 50
204 199 197 194 198 203 206 208 207 217 239 279 296 309 309 312 312 316 330 325 325 314 194 174 174 41 71 84 79 75 70 62 55 55 54 56 57 58 58 55 50 52 48
216 210 203 202 205 210 212 210 213 216 234 266 277 298 305 309 312 317 326 325 324 289 229 201 207 216 177 115 95 86 74 69 73 64 60 70 67 59 57 51 58 58 56
222 220 213 213 213 212 210 212 217 221 236 251 261 283 297 305 303 319 329 327 325 297 225 204 217 219 216 180 132 110 89 75 74 73 71 75 70 65 60 59 70 63 49
229 227 225 221 217 215 216 213 211 218 234 231 252 272 281 289 308 320 324 332 335 329 202 215 218 193 177 194 173 157 142 115 98 93 82 77 66 60 56 58 56 52 49
238 234 231 226 220 218 216 210 206 216 222 224 248 259 274 290 299 317 328 320 332 332 209 215 210 208 19 184 179 170 158 132 130 109 93 80 63 57 59 62 56 46 47
237 233 228 224 224 220 213 207 211 210 211 221 239 243 258 278 308 317 310 316 331 304 223 204 210 266 356 181 186 176 166 138 150 139 116 94 43 46 53 62 55 38 31
227 234 233 227 232 219 223 229 222 227 228 227 236 234 241 278 306 307 321 329 343 333 242 223 229 51 60 128 188 196 186 175 138 133 215 180 304 313 338 19 8 9 9
219 227 227 229 332 291 232 239 241 259 235 248 245 241 238 272 285 285 295 342 7 16 264 219 151 82 67 94 126 162 187 172 161 117 116 87 324 282 275 316 328 308 333
193 231 279 235 352 254 232 246 266 242 241 250 235 236 238 266 229 174 135 52 11 35 64 138 115 106 97 86 86 97 85 93 92 153 138 48 37 71 73 321 321 281 307
114 357 279 246 267 263 243 255 250 250 227 234 231 234 234 252 220 173 156 114 93 51 80 131 128 117 103 73 68 82 87 88 79 82 77 49 22 349 318 329 342 319 288